Location: Casalecchio di Reno
(44.4760°N, 11.2757°E)
Time: 00:53:25
(UTC+02:00)

UWE-3 - Pass Details

Date: 27 June 2024
Orbit: 566 x 652 km, 97.8° (Epoch: 17 July)

Event Time Altitude Azimuth Distance (km) Brightness Sun altitude
Rises 04:25:23 0° 5° (N) 2,857 ? -9.9°
Reaches altitude 10° 04:27:42 10° 357° (N) 1,936 ? -9.6°
Maximum altitude 04:31:34 37° 290° (WNW) 909 ? -9.1°
Enters shadow 04:35:06 11° 224° (SW) 1,796 ? -8.7°
